Theta_e
287 286 286 285 284 284 283 283 283 284 283 284 285 286 287 287 287 286 286 286 287 288 287 287 287 287 287 286 286 284 284 284 284 284 285 284 284 284 283 283 283 283 282 282 281 281 280 280 280 280 279 279 279 278 278 278 278 277 277 277 277 277
287 288 287 285 284 283 283 283 283 284 284 284 284 285 285 285 286 286 286 287 287 287 287 287 287 287 287 286 285 284 284 284 284 284 283 284 284 283 283 283 283 282 282 281 281 280 280 280 280 279 279 278 278 278 277 277 277 277 276 276 276 276
294 287 287 286 284 283 283 283 283 283 283 284 285 285 285 285 286 286 286 287 286 286 286 286 286 286 286 285 285 284 284 284 284 284 284 283 282 283 283 282 282 282 282 281 281 280 280 279 279 279 278 278 277 277 277 276 277 276 276 276 275 276
292 288 286 285 285 284 283 283 282 283 283 285 285 285 285 285 286 286 287 286 287 286 286 286 286 286 285 285 284 284 284 283 283 283 282 282 282 283 282 282 282 282 281 281 280 280 280 279 279 278 278 278 277 276 276 276 276 276 275 275 275 275
287 287 287 286 286 285 284 283 283 284 284 284 284 285 285 286 286 287 286 286 286 286 286 286 285 285 284 284 284 284 284 283 283 283 282 282 282 282 282 282 282 281 281 280 280 279 279 279 278 278 278 277 277 276 276 276 276 276 275 275 275 275
286 286 287 287 286 285 285 285 284 284 284 284 284 284 285 285 286 286 285 285 285 285 285 285 285 284 284 284 284 284 284 284 283 282 282 282 282 281 282 282 281 281 280 280 279 279 279 278 278 278 278 277 277 276 276 276 276 276 275 275 275 274
287 287 287 287 287 287 286 286 286 285 284 283 283 284 285 285 285 285 285 285 285 285 284 284 284 284 284 284 284 284 284 283 283 282 282 281 281 281 281 281 281 280 280 280 279 279 278 278 278 277 277 277 277 277 276 276 276 275 275 275 275 275
288 288 287 288 288 288 287 287 286 285 284 284 283 283 284 284 283 284 284 284 284 284 284 284 284 284 284 284 284 284 284 283 283 281 281 281 281 281 281 280 280 280 280 280 279 279 278 278 278 277 277 277 277 276 276 276 275 275 275 274 274 274
288 288 288 288 287 287 287 287 286 285 285 285 285 285 284 283 283 283 284 284 284 284 284 284 284 284 284 284 284 284 283 283 282 281 281 281 281 280 280 280 280 280 280 280 279 279 278 278 277 277 277 276 276 276 275 275 274 274 274 274 273 273
287 287 287 287 288 288 288 287 287 287 288 287 287 285 285 285 283 283 283 283 283 283 284 284 284 284 285 284 284 283 283 282 282 281 281 280 280 280 280 280 280 280 280 280 279 279 278 277 277 277 276 276 276 275 274 274 273 273 273 272 272 272
286 286 287 287 288 288 288 289 289 289 288 287 286 284 284 283 282 282 282 282 283 283 284 284 284 284 284 283 283 282 282 282 282 281 280 280 280 280 280 280 280 279 279 279 279 278 278 277 277 277 276 275 275 275 274 273 273 272 272 271 271 271
285 286 286 287 287 287 288 288 288 289 289 290 290 289 286 282 282 282 282 281 282 283 283 283 283 283 283 283 282 282 282 282 281 280 280 280 280 280 280 279 279 279 278 278 277 277 277 277 277 278 280 279 275 274 273 273 272 272 271 271 270 270
284 285 285 286 286 287 287 287 288 288 288 289 289 289 289 285 283 282 281 282 283 283 282 282 282 282 282 283 283 282 281 281 280 280 279 279 279 279 278 279 278 278 278 278 277 276 276 276 276 280 282 281 280 275 273 272 272 272 271 271 270 269
284 284 285 285 286 286 286 287 287 287 287 287 287 288 288 286 283 283 282 283 283 282 282 282 282 281 282 282 282 282 281 281 280 279 279 278 278 278 278 278 278 278 278 278 277 276 276 276 279 281 282 282 281 278 273 272 272 271 271 271 270 270
283 283 284 285 286 286 286 286 286 286 286 286 286 287 287 286 284 283 283 283 282 282 281 281 281 281 281 281 282 281 281 280 280 279 278 278 278 278 278 278 278 278 278 277 276 276 276 275 280 282 283 282 282 280 275 272 272 271 271 271 271 271
283 283 283 284 285 285 286 286 285 285 285 285 286 286 286 285 284 282 282 282 282 281 281 281 281 281 281 281 281 280 280 279 279 279 279 278 278 278 278 277 277 277 277 276 276 276 275 275 279 282 283 283 282 281 277 271 271 271 271 271 271 272
283 283 284 284 285 285 285 285 285 285 285 285 285 285 284 284 282 281 280 280 280 279 279 280 280 280 280 280 280 280 279 279 278 278 278 278 278 278 277 277 276 276 276 276 275 275 274 274 280 282 283 283 283 282 277 271 271 271 271 272 273 273
283 283 284 285 285 285 285 285 285 284 284 285 284 284 283 283 282 282 281 280 280 279 279 278 279 279 279 279 279 279 279 278 278 278 278 277 277 277 277 276 276 276 275 275 275 274 273 273 280 282 283 284 283 282 273 271 271 271 272 272 273 274
284 284 285 285 285 285 285 286 286 285 284 284 284 283 282 282 282 282 281 280 280 280 279 279 279 279 278 278 278 278 278 278 277 277 277 276 276 276 275 275 275 276 275 274 274 273 273 273 279 282 283 284 284 280 271 271 271 271 272 272 273 274
284 285 285 285 285 285 285 286 285 284 284 284 284 283 283 283 283 281 280 279 279 279 279 279 279 279 278 277 277 277 277 276 276 276 276 276 275 274 274 275 274 274 274 273 273 273 272 272 277 282 283 284 284 279 271 271 271 271 272 272 274 274
283 284 284 283 283 284 285 285 285 284 284 284 284 283 283 284 284 282 280 280 279 278 278 278 278 279 278 277 277 276 276 276 276 276 274 274 275 274 274 273 273 273 272 273 273 275 273 272 276 282 283 284 284 278 272 272 272 272 272 272 273 273
282 282 282 282 282 284 284 284 284 284 284 284 284 283 284 284 284 282 280 279 279 278 277 277 277 277 277 277 276 275 275 274 272 272 273 273 273 272 272 271 272 271 271 272 272 272 273 271 273 279 283 284 284 280 273 273 272 271 272 272 272 271
281 281 281 281 282 282 283 283 283 283 283 283 283 283 284 285 284 281 280 279 277 276 276 275 276 276 275 275 274 274 273 272 273 271 271 270 270 270 270 270 270 270 270 270 271 271 272 272 272 277 283 284 284 282 277 273 273 273 272 272 271 271
280 280 280 280 281 281 282 282 281 281 281 282 282 283 285 285 284 282 280 278 277 276 275 275 275 275 275 273 274 273 273 271 271 271 270 270 269 270 269 269 269 269 269 269 270 270 271 272 274 274 282 284 284 283 280 274 273 274 273 272 271 271
278 278 278 278 279 280 280 280 279 279 280 280 281 284 284 285 284 283 281 279 277 276 276 275 276 276 276 275 275 274 272 271 271 271 271 270 269 269 268 268 269 269 269 268 269 270 271 271 273 277 279 283 284 284 281 278 276 278 273 272 270 271
277 276 276 277 277 278 278 278 277 278 278 279 282 283 284 284 284 284 282 280 278 277 276 276 276 275 275 275 275 274 273 271 270 271 271 271 270 269 268 268 268 269 268 268 268 269 269 270 271 276 280 281 284 284 281 280 279 279 273 272 271 272
274 274 274 275 275 276 276 277 276 277 276 278 280 280 281 283 284 284 283 282 281 279 278 276 276 275 275 274 275 274 273 271 270 270 270 270 270 270 269 269 269 268 268 268 267 267 268 269 270 272 277 281 282 284 282 280 279 279 277 272 272 273
272 271 271 272 273 274 275 275 276 274 275 277 277 278 281 283 282 281 281 282 282 281 279 277 276 275 275 274 275 275 274 272 271 271 270 270 270 270 270 269 269 268 268 267 267 267 267 268 269 271 274 279 281 282 281 280 279 278 277 274 273 275
269 269 269 270 271 272 273 273 273 274 274 275 276 278 280 278 277 277 278 279 280 281 280 277 276 275 274 274 274 274 274 273 272 271 271 270 270 270 270 270 269 268 268 266 267 267 267 268 269 270 273 276 278 279 279 278 277 278 277 273 273 275
267 268 268 268 270 270 270 270 271 272 273 274 276 276 275 274 274 274 274 275 277 278 279 278 275 274 274 273 273 273 273 272 272 271 271 270 270 270 270 270 269 269 269 267 267 267 266 267 268 269 272 274 276 277 278 276 276 275 273 272 273 272
266 267 267 267 268 268 268 268 269 270 272 273 273 271 270 270 271 272 272 273 275 276 278 277 276 275 275 274 273 273 274 273 272 272 272 273 273 272 271 270 270 270 270 270 268 267 266 267 267 269 274 275 278 277 276 275 275 274 272 273 274 268
265 265 265 265 266 266 266 266 267 267 268 268 268 268 267 268 269 270 271 272 273 275 277 276 275 274 274 274 273 272 272 274 276 274 272 272 274 276 276 275 272 271 271 270 270 270 268 267 269 273 276 278 279 280 279 278 277 275 273 275 274 269
265 264 264 264 264 264 264 264 264 264 265 266 266 266 266 267 268 269 270 271 272 274 275 276 275 274 274 273 273 272 271 270 273 277 277 276 275 276 277 277 277 276 275 272 270 271 274 273 273 275 277 278 279 280 279 278 277 276 276 276 270 266
263 262 262 263 263 262 262 262 262 263 263 264 265 266 266 267 267 267 268 270 271 273 274 275 275 275 273 272 272 271 271 270 269 270 276 277 276 276 277 277 278 277 277 276 274 271 271 274 275 277 278 278 279 279 279 278 278 278 277 276 273 265
262 261 261 261 261 260 260 260 261 261 262 263 264 264 264 264 265 265 266 268 270 272 274 275 275 274 273 272 271 270 270 270 270 269 269 272 277 277 276 277 277 278 277 277 276 275 274 274 276 277 278 279 279 279 279 279 278 278 278 276 267 263
260 260 260 259 259 259 259 259 260 261 261 262 262 263 263 264 265 267 268 270 271 273 275 275 276 274 273 272 272 271 270 270 270 270 270 269 269 271 274 277 277 277 277 277 277 276 276 276 277 278 278 279 279 279 279 278 276 278 278 273 265 263
259 258 259 259 259 259 259 259 259 260 261 261 262 263 264 265 267 269 271 271 272 273 274 275 276 275 273 272 271 271 270 270 270 270 269 269 268 268 269 270 273 276 278 275 276 277 277 277 278 278 278 279 279 279 278 278 273 273 271 266 263 262
258 258 258 258 258 258 258 258 259 261 262 263 264 266 267 267 266 266 266 268 270 272 274 275 276 275 274 272 271 271 270 270 270 269 269 269 269 269 269 270 271 273 276 278 277 277 277 278 278 278 279 278 279 278 278 272 270 268 265 262 261 260
Wind_Speed
5 6 7 6 6 5 5 5 6 7 7 7 9 14 14 11 9 10 10 11 12 12 15 16 15 13 13 12 10 9 12 13 13 13 13 9 10 11 11 12 12 12 12 12 11 11 12 11 11 10 9 9 8 8 8 7 8 8 8 7 8 7
4 6 6 6 6 6 6 6 6 10 9 9 10 8 7 8 12 13 15 16 14 14 11 12 13 14 14 13 12 12 13 13 12 11 10 13 11 10 12 12 13 14 14 12 12 11 11 11 10 10 10 9 8 8 8 8 9 9 9 8 7 7
15 0 4 5 5 5 5 6 8 8 6 11 12 15 15 13 14 11 14 12 15 15 15 16 14 15 13 11 12 13 12 11 12 12 12 8 11 12 13 14 14 14 13 13 13 13 13 12 11 10 10 10 9 8 8 8 9 10 8 8 8 7
14 8 2 5 6 7 7 7 5 8 12 13 11 10 11 13 12 14 16 14 13 14 16 15 12 12 10 12 12 13 12 12 12 12 10 13 13 13 14 15 13 13 14 13 13 12 12 12 12 12 11 12 11 10 7 9 10 10 9 9 9 9
7 8 12 8 7 6 5 6 9 12 12 10 9 11 14 14 16 14 11 10 12 14 13 11 11 10 12 14 13 14 14 13 12 11 14 13 12 11 13 14 14 14 14 14 13 13 13 13 13 12 12 12 12 12 11 10 12 12 12 12 12 11
7 7 8 7 6 6 8 9 9 10 10 11 9 12 15 13 12 9 9 10 12 12 10 12 11 11 13 14 14 16 15 13 12 11 13 12 11 13 12 13 14 14 15 15 15 15 15 14 14 13 13 14 14 13 13 12 12 11 11 12 11 11
11 9 9 9 9 8 7 8 8 7 8 5 8 12 11 9 7 7 10 11 13 12 13 14 13 14 14 16 14 17 16 14 13 11 13 12 13 13 13 13 13 14 15 16 17 17 16 16 16 15 14 13 13 13 13 13 12 12 11 11 11 11
12 9 9 10 10 8 8 7 5 5 7 10 8 11 11 9 6 8 10 12 13 14 15 15 13 15 17 18 17 17 15 14 13 12 11 13 14 13 14 14 13 15 17 16 16 17 17 16 16 17 16 16 14 13 12 12 11 11 10 10 9 10
18 17 14 10 8 9 10 10 11 9 8 10 10 10 11 8 7 10 11 13 13 13 14 14 14 15 16 17 17 13 12 13 13 13 14 13 14 14 14 14 16 15 17 18 16 17 17 17 16 15 15 14 14 14 13 12 11 10 9 9 9 9
15 16 15 15 14 11 9 8 9 10 11 12 11 9 10 9 7 10 11 12 13 14 14 13 14 14 16 13 11 11 12 12 12 13 12 11 13 14 16 16 16 15 14 15 15 16 15 15 15 14 14 14 14 13 13 12 12 11 9 9 9 9
13 15 16 16 17 18 16 13 11 9 8 8 9 8 9 9 8 11 11 11 13 15 13 12 11 12 11 10 10 12 12 13 13 12 12 13 14 12 14 13 14 13 13 12 13 13 12 14 14 13 14 14 14 12 13 13 12 12 12 10 9 8
15 15 15 17 18 19 19 19 19 19 19 18 17 13 7 5 10 11 10 11 13 12 9 10 9 9 10 11 13 14 13 12 12 12 13 13 13 13 12 12 13 14 15 14 13 12 12 12 11 13 21 18 15 14 12 11 11 12 11 12 10 9
15 16 17 17 17 17 16 17 17 17 19 19 20 19 17 10 9 8 8 12 12 10 8 9 10 9 11 13 11 10 11 12 11 12 12 12 12 13 12 13 15 15 14 15 15 15 14 12 11 19 23 23 22 15 13 13 12 11 11 11 12 11
15 16 16 16 16 17 16 16 15 15 17 18 18 18 18 15 10 10 11 12 11 9 9 9 9 9 12 9 12 11 11 10 10 11 12 12 13 12 12 14 15 14 15 14 15 16 15 13 16 24 25 24 25 20 13 12 12 11 11 11 11 9
10 12 13 13 14 16 16 14 14 15 15 16 16 15 16 16 13 12 12 11 9 9 8 7 8 10 10 11 11 9 9 11 11 12 12 15 14 11 13 15 15 16 14 14 16 15 13 12 19 25 26 25 26 25 17 11 11 12 11 11 11 11
11 10 9 9 10 11 12 11 11 13 12 12 13 14 16 16 15 11 11 10 8 7 6 7 7 9 9 7 7 8 10 11 14 13 11 9 9 13 14 13 15 14 14 15 15 14 13 12 18 25 25 25 26 25 19 11 12 11 11 12 11 9
12 13 12 11 11 12 12 14 13 14 15 14 14 14 15 15 14 13 10 9 8 6 5 5 6 7 6 5 6 7 9 11 9 10 11 11 13 14 15 14 14 13 12 12 12 11 12 11 21 25 26 25 26 25 18 10 10 9 9 9 9 10
12 14 13 11 11 12 11 12 13 13 15 14 12 13 12 13 13 12 11 10 8 5 5 5 5 5 4 5 5 8 9 9 10 11 9 8 8 7 7 8 9 11 12 12 12 12 12 10 23 24 25 26 25 26 13 11 11 10 10 9 9 9
9 10 10 11 12 13 13 13 14 14 14 14 14 13 12 11 12 13 11 11 10 8 5 4 5 5 4 4 6 8 8 9 9 8 6 8 8 9 10 10 10 10 11 13 12 13 11 11 21 26 26 27 28 20 11 11 10 10 10 10 10 10
9 9 9 11 12 12 12 14 14 14 13 13 13 13 14 12 11 11 10 11 10 8 7 5 4 5 5 6 8 9 8 6 4 7 7 10 10 10 10 8 8 8 9 12 13 14 13 12 19 27 27 28 30 19 14 12 12 11 10 10 9 9
10 10 10 12 13 13 13 15 14 13 13 13 12 12 13 13 12 11 10 10 9 8 6 5 5 6 7 8 8 7 7 7 8 6 6 7 7 8 7 8 8 8 8 10 11 12 13 11 16 26 27 29 30 20 13 12 12 12 11 11 10 8
11 12 12 13 13 13 14 14 14 15 13 13 12 12 14 14 13 12 10 9 8 7 6 5 6 6 6 7 5 5 6 5 5 6 7 6 6 6 7 7 7 9 8 7 9 10 11 12 12 18 29 28 30 26 15 12 13 13 13 11 11 11
9 11 13 12 13 14 13 13 14 15 15 14 13 13 14 14 13 12 10 9 8 7 6 5 4 6 5 5 6 5 5 5 7 7 7 7 5 5 6 7 7 8 7 7 8 9 10 10 13 16 28 29 30 27 23 13 14 12 13 13 12 9
11 12 12 12 13 13 12 12 14 15 15 14 15 14 13 13 13 12 10 9 8 7 6 5 5 4 5 4 5 6 7 5 6 7 7 7 7 8 7 7 7 7 7 6 8 8 9 9 15 13 23 29 31 29 27 14 13 13 13 13 10 8
12 12 13 13 12 11 12 13 15 15 14 15 16 14 13 13 13 13 11 9 8 7 7 6 6 6 4 5 6 8 7 6 7 7 7 7 7 9 9 8 8 7 7 6 7 7 8 9 10 17 15 26 30 30 26 21 14 21 11 12 12 10
12 14 14 13 12 11 11 12 15 15 16 17 14 13 14 14 14 13 12 11 9 8 7 7 6 6 5 6 7 7 8 8 8 8 8 8 9 8 9 8 8 8 9 9 6 6 7 7 8 12 17 19 29 27 25 25 23 21 11 9 8 8
14 15 16 14 13 12 11 11 13 18 19 16 13 15 16 15 14 13 13 13 11 9 8 6 6 6 6 7 8 9 8 8 9 9 8 9 9 9 10 9 9 10 11 10 11 6 5 4 5 7 14 19 21 27 24 24 24 22 20 11 8 8
11 13 16 17 13 11 11 11 12 18 20 17 14 15 15 13 15 16 16 14 12 11 8 7 7 6 7 8 8 9 9 11 10 10 9 10 10 10 10 10 10 10 10 12 7 7 7 7 5 9 9 13 18 20 24 25 25 23 22 15 11 14
12 15 16 19 18 11 10 13 13 14 16 17 17 15 13 15 16 17 17 16 15 13 10 9 7 6 7 8 7 7 8 8 9 10 10 11 11 11 10 10 11 11 10 9 9 7 7 7 9 10 10 9 11 11 15 17 17 22 21 14 11 14
12 15 17 19 19 15 13 13 15 16 16 16 15 13 15 17 17 16 17 18 15 14 12 10 10 9 7 8 9 9 8 8 10 11 13 13 14 14 13 12 12 13 13 9 7 6 6 9 13 13 14 15 14 14 14 14 14 14 12 13 12 11
14 15 16 19 18 17 16 16 15 16 17 15 13 15 16 18 18 17 18 17 14 14 12 10 9 9 9 8 9 10 10 11 12 13 12 11 10 12 14 14 13 12 10 10 13 13 10 11 15 17 14 15 18 17 15 15 15 13 13 16 19 12
13 14 16 17 16 15 16 16 17 17 15 14 12 14 16 18 16 15 14 14 14 14 11 9 9 9 9 9 9 9 9 10 14 11 10 9 13 18 16 13 11 10 10 11 11 13 16 18 15 16 24 25 25 26 22 19 20 19 17 22 27 15
14 15 18 19 16 15 16 16 18 18 15 11 12 14 17 16 15 14 14 12 12 13 13 11 11 9 8 9 9 8 9 8 9 19 20 14 12 16 21 21 19 17 18 13 11 12 17 11 14 23 25 27 28 28 25 23 24 26 27 28 17 11
17 16 18 17 16 15 18 17 19 19 13 9 12 12 15 15 15 15 16 14 14 13 15 12 12 10 9 9 8 8 9 9 8 8 17 22 19 20 22 22 21 20 20 22 17 12 10 17 20 25 28 28 29 28 25 25 27 27 28 26 21 11
14 14 13 16 16 18 17 19 22 19 12 13 13 14 16 18 16 16 17 15 16 14 14 13 12 10 9 9 9 9 9 10 10 10 8 11 19 20 20 21 22 21 20 23 24 23 19 19 23 28 29 29 29 27 26 27 27 27 26 24 13 9
13 15 15 15 16 19 18 20 21 16 12 15 14 15 16 18 17 17 14 15 13 13 12 12 10 10 9 9 9 9 10 11 11 10 10 9 8 10 14 19 23 22 22 23 25 24 24 25 28 30 30 31 30 28 27 25 19 23 25 18 11 10
16 16 18 18 18 17 19 20 22 13 13 14 16 18 17 17 15 14 15 23 20 14 14 13 12 10 9 9 9 9 10 10 9 9 10 10 10 10 11 9 12 18 22 18 18 24 26 28 29 31 31 32 31 30 29 25 14 15 11 8 6 7
17 18 16 16 16 17 18 20 16 10 13 14 16 17 15 13 15 17 17 17 19 15 13 13 12 10 9 9 9 9 10 10 9 10 10 9 10 10 9 8 9 10 16 25 22 25 25 29 30 30 32 32 32 31 31 16 12 10 9 10 8 8
Wind_Direction
263 256 253 247 252 235 241 253 227 209 202 197 201 211 216 210 205 206 209 207 211 212 211 207 208 210 212 209 199 187 194 197 197 196 199 182 178 182 178 182 184 185 189 189 188 184 186 183 184 180 181 183 183 183 181 169 168 167 170 172 167 170
262 254 257 257 234 237 235 227 234 226 208 194 207 218 221 214 209 206 210 210 208 211 209 214 211 211 208 204 196 196 201 202 196 195 191 194 182 182 180 182 184 186 187 188 186 185 184 184 183 179 179 180 187 181 179 176 171 172 173 173 175 169
323 306 283 257 248 228 219 222 225 236 226 216 206 206 209 211 215 208 220 212 216 211 208 209 206 212 209 206 204 203 203 199 196 196 197 172 186 183 186 185 187 185 186 185 186 185 185 183 181 180 176 181 184 185 181 173 177 174 175 170 175 176
307 322 269 238 233 229 220 217 228 230 225 226 217 214 216 215 215 211 218 212 217 212 216 211 209 208 200 205 206 209 204 202 200 196 181 191 192 184 186 187 184 184 182 183 186 186 187 186 184 179 178 181 181 183 179 179 179 179 177 175 180 178
305 295 293 277 253 253 238 222 219 228 234 235 229 218 224 215 219 217 218 215 217 219 219 214 210 200 202 205 207 208 206 205 201 188 191 193 187 187 188 187 184 182 181 182 183 184 186 186 184 182 181 184 183 182 183 184 184 183 180 182 184 180
307 296 289 278 260 249 239 234 237 240 237 233 228 227 232 224 226 219 216 220 222 221 215 215 209 200 205 207 209 210 209 204 201 192 196 192 183 186 190 187 184 180 182 183 183 186 186 185 185 184 185 184 182 184 186 185 189 189 189 185 179 176
313 313 320 319 312 303 295 286 278 275 272 267 244 244 245 239 230 221 223 218 223 217 213 213 206 205 206 210 210 212 206 203 199 193 195 187 191 189 184 187 183 182 182 186 187 187 186 187 183 182 185 185 184 185 184 187 188 190 189 186 182 179
325 349 345 335 328 318 309 297 277 262 264 261 256 261 257 240 225 225 224 222 222 220 216 214 205 209 208 211 212 211 205 201 196 192 194 191 192 189 190 185 184 186 189 191 189 188 186 183 185 186 185 183 181 183 185 186 187 187 184 183 182 180
355 351 356 348 336 333 328 323 315 303 282 274 265 256 258 248 223 226 224 225 223 223 220 213 211 212 213 213 213 208 201 200 197 192 195 194 194 189 189 191 189 193 190 192 188 187 185 185 185 185 184 183 181 181 181 181 182 181 179 183 181 179
349 351 347 347 348 343 341 327 312 301 294 283 272 257 257 263 243 233 228 225 225 224 221 215 213 215 218 217 211 205 203 198 194 196 193 186 193 194 193 192 193 194 194 193 189 190 184 182 184 184 183 182 181 179 180 177 175 175 176 175 177 176
346 345 347 345 346 348 346 343 338 327 310 289 280 267 257 249 231 234 230 228 227 227 221 217 217 219 218 210 206 205 202 198 197 191 187 191 196 195 195 193 191 188 194 194 192 187 186 186 186 183 181 179 180 180 176 174 173 173 172 172 175 176
345 346 345 348 348 347 347 346 344 342 340 337 333 323 296 206 224 227 230 230 234 233 227 223 221 217 210 206 207 206 201 198 193 190 193 195 194 193 191 190 191 192 191 187 186 185 187 192 190 187 182 179 176 173 172 171 175 174 173 170 171 176
343 344 347 346 347 346 345 341 340 340 340 338 334 330 327 316 279 266 246 246 245 240 228 220 218 208 211 214 209 204 198 197 193 193 194 192 191 191 188 187 191 193 188 187 186 186 190 191 187 183 183 181 175 170 170 171 173 173 172 175 174 176
343 342 340 340 341 343 343 340 339 341 339 335 330 327 324 316 287 270 259 250 251 240 229 223 214 207 216 207 209 202 198 192 191 194 193 190 190 192 188 194 195 190 190 190 189 190 190 188 182 183 183 180 177 173 170 170 170 171 175 174 175 174
334 332 331 335 340 340 336 334 334 336 334 328 322 322 324 321 302 280 271 265 257 249 234 223 214 216 213 210 206 197 191 192 194 195 191 196 195 183 191 197 190 196 192 189 190 192 189 189 183 183 182 180 178 174 169 173 169 171 174 174 175 174
332 329 324 320 324 328 324 327 326 324 323 320 322 329 330 329 319 298 283 282 272 258 240 228 221 222 220 209 199 193 194 194 200 197 195 189 183 194 198 195 196 193 192 192 190 188 186 184 183 183 182 180 178 174 169 169 168 170 172 173 173 172
326 325 328 332 331 328 330 331 333 329 328 332 331 333 335 332 325 315 304 294 288 282 262 246 235 235 226 203 198 198 204 205 204 196 195 191 194 195 197 195 195 196 192 190 186 184 184 183 182 184 183 181 178 175 163 162 165 166 169 167 166 166
325 322 320 322 326 325 327 325 327 329 325 326 329 330 332 331 326 320 318 307 300 287 265 252 252 248 229 204 198 203 208 205 202 201 195 194 199 200 195 203 198 193 191 187 183 183 184 180 184 184 183 180 177 171 156 164 167 169 170 170 168 164
311 314 311 317 323 326 326 328 328 326 325 328 330 331 328 332 330 326 319 308 303 295 276 251 238 235 220 205 203 210 209 203 204 200 184 192 196 193 196 199 196 195 189 185 185 183 181 177 186 186 184 181 177 167 155 163 165 169 170 171 169 167
319 318 320 318 323 325 326 326 324 323 323 324 326 329 326 329 326 320 310 303 299 289 281 259 237 231 211 199 209 210 208 203 196 196 184 193 191 194 198 188 192 194 191 189 190 187 180 182 187 187 185 181 182 165 159 165 167 169 169 167 169 169
324 324 327 327 324 328 329 323 322 321 319 321 324 326 322 322 323 320 307 295 286 277 264 249 231 222 212 209 209 197 197 196 197 189 177 192 191 196 181 181 187 190 191 195 192 187 183 180 189 189 188 183 183 167 163 164 167 166 170 168 166 163
330 328 330 329 325 326 327 325 322 320 318 319 322 323 319 316 315 307 294 287 284 272 254 232 224 220 208 210 197 184 192 171 158 174 182 191 186 180 176 182 183 185 191 185 189 192 186 181 191 195 191 186 186 171 163 168 168 172 168 168 168 161
329 325 321 324 324 325 324 324 321 319 319 317 318 317 312 309 309 304 296 289 287 281 270 258 240 232 225 199 185 173 169 174 177 167 171 176 175 165 172 178 181 182 188 185 192 194 195 187 188 198 194 192 189 173 168 175 177 170 166 169 167 170
324 321 320 321 323 320 320 322 319 313 313 313 310 308 306 307 306 303 298 290 281 274 266 254 248 230 215 184 166 170 179 174 164 172 172 168 167 175 181 181 183 185 182 184 189 196 197 195 197 197 200 196 194 182 175 169 179 167 164 165 168 163
320 320 319 319 319 319 319 320 312 308 308 305 303 306 306 307 306 302 299 291 283 270 258 247 228 217 194 189 184 178 179 166 160 166 166 171 174 178 179 181 185 183 189 187 196 192 192 191 201 206 208 200 197 190 174 172 166 174 170 167 168 168
318 318 315 313 312 313 314 312 305 302 301 296 301 306 308 308 306 303 300 295 284 274 259 241 231 214 198 189 182 183 174 174 170 168 174 176 179 187 190 189 180 185 191 194 187 179 162 170 193 210 213 208 200 194 178 175 173 174 164 165 156 147
318 312 305 303 304 304 304 304 300 301 298 299 311 312 308 304 306 309 304 301 294 280 268 246 232 215 200 195 183 184 185 177 171 176 182 177 188 189 195 197 190 195 195 186 172 166 167 163 175 198 210 209 202 196 177 174 172 174 169 164 154 144
305 300 298 299 295 296 298 298 302 301 300 307 311 308 305 314 321 316 311 307 301 292 276 253 239 223 213 202 200 198 190 182 183 185 181 186 191 194 198 194 193 201 200 190 162 167 158 165 148 198 202 204 199 195 177 173 172 172 172 158 157 155
306 302 300 297 298 300 301 304 302 295 298 304 308 308 314 321 314 310 308 305 304 299 286 258 246 223 217 211 209 205 198 191 188 188 189 191 192 195 199 200 197 199 198 176 182 150 156 152 177 191 196 197 192 191 173 172 173 171 164 156 160 160
296 297 301 300 300 308 310 305 302 300 298 299 304 319 324 315 308 304 301 298 297 292 284 268 246 234 222 210 204 205 204 201 196 197 198 193 195 193 200 196 199 201 200 183 163 150 154 175 188 193 193 191 186 184 173 173 169 169 158 154 159 158
296 294 296 294 298 307 308 303 298 298 300 305 319 325 315 305 299 298 293 293 291 285 278 263 252 232 231 222 213 217 211 200 199 208 216 214 202 201 196 195 204 201 197 188 186 183 188 190 199 203 194 191 188 182 174 169 171 163 157 162 150 132
287 292 293 290 295 299 298 300 299 297 295 306 312 308 301 299 297 295 286 286 287 283 281 272 256 241 231 227 221 220 229 229 222 214 210 213 206 213 213 205 206 194 184 190 197 190 189 196 197 180 189 194 192 188 176 167 161 152 149 152 147 137
294 295 291 291 297 297 296 296 292 288 292 311 306 301 295 293 291 286 281 280 278 281 283 276 264 249 233 230 226 218 221 223 228 226 222 217 205 209 216 217 215 202 196 189 186 193 201 194 181 186 189 189 189 186 176 163 153 151 154 150 137 139
295 293 292 295 297 297 297 294 290 288 302 314 297 291 291 288 286 284 283 283 281 279 277 272 265 253 238 234 222 218 214 214 218 225 224 220 216 217 216 218 217 214 207 201 191 174 187 193 188 184 187 188 187 184 172 162 157 158 158 158 149 142
288 286 286 290 293 293 291 289 285 288 306 304 295 289 284 280 275 275 277 275 276 275 270 264 259 249 237 232 221 218 212 213 212 213 213 218 219 216 215 215 216 215 211 203 199 188 180 180 182 184 184 185 186 180 174 169 167 167 165 154 145 154
284 284 283 285 286 285 284 283 281 290 303 295 288 279 267 266 264 266 268 273 272 269 269 267 257 248 237 227 223 218 214 215 215 215 204 192 189 210 215 216 214 212 207 204 199 193 183 182 180 182 181 182 181 177 173 167 169 170 173 162 157 159
284 282 281 283 285 283 281 278 281 295 289 278 276 274 271 267 264 268 270 274 277 276 272 266 261 252 238 230 220 220 216 216 215 209 206 196 192 190 192 189 202 209 205 200 197 190 183 181 180 181 180 178 177 172 168 164 163 172 167 129 129 149
281 280 282 284 280 277 276 276 282 286 279 278 274 269 273 289 298 295 288 285 282 279 273 266 263 251 238 228 223 215 213 211 205 203 206 203 197 195 188 188 188 186 200 196 189 188 184 180 180 179 177 175 173 169 167 164 171 155 150 154 153 147